Weather Service Report


844 
ASUS44 KBMX 030010
RWRAL 
             
ALABAMA REGIONAL WEATHER ROUNDUP
NATIONAL WEATHER SERVICE BIRMINGHAM AL
700 PM CDT THU JUL 02 2015

NOTE: "FAIR" INDICATES FEW OR NO CLOUDS BELOW 12,000 FEET
WITH NO SIGNIFICANT WEATHER AND/OR OBSTRUCTIONS TO VISIBILITY.

THE REMARK "TC" DENOTES TEMPERATURE IN DEGREES CELSIUS.

ALZ001>011-014-016>018-020-030100-
NORTH ALABAMA
  
CITY           SKY/WX    TMP DP  RH WIND       PRES   REMARKS
MUSCLE SHOALS  PTSUNNY   82  69  64 W10       29.92R                  
6HR MIN TEMP:  82; 6HR MAX TEMP:  88;                                

HUNTSVILLE     CLOUDY    83  69  62 SW9       29.92R                  
6HR MIN TEMP:  83; 6HR MAX TEMP:  89;                                

DECATUR        CLOUDY    82  68  62 SW17G23   29.92R                  
6HR MIN TEMP:  82; 6HR MAX TEMP:  87;                                

HALEYVILLE     PTSUNNY   81  73  76 SW12      29.97R                  
6HR MIN TEMP:  80; 6HR MAX TEMP:  83;                                

GADSDEN        CLOUDY    90  64  43 SW5       29.94S HX  91           
6HR MIN TEMP:  90; 6HR MAX TEMP:  97;                                

$$
 
ALZ012-013-022-023-030>036-040>044-030100-
WEST CENTRAL ALABAMA
  
CITY           SKY/WX    TMP DP  RH WIND       PRES   REMARKS
TUSCALOOSA     PTSUNNY   83  71  67 S7        29.95F                  
6HR MIN TEMP:  83; 6HR MAX TEMP:  91;                                

$$
 
ALZ015-024>027-033>036-040>044-030100-
CENTRAL ALABAMA
  
CITY           SKY/WX    TMP DP  RH WIND       PRES   REMARKS
BIRMINGHAM     CLOUDY    83  70  64 SW13      29.98S                  
6HR MIN TEMP:  83; 6HR MAX TEMP:  89;                                

MONTGOMERY     CLOUDY    86  73  65 S6        29.99S HX  93           
6HR MIN TEMP:  86; 6HR MAX TEMP:  90;                                

SHELBY CO ARPT CLOUDY    81  71  71 SW5       29.98S                  
6HR MIN TEMP:  81; 6HR MAX TEMP:  87;                                

MAXWELL AFB    NOT AVBL                                               
GREENVILLE     FAIR      85  72  65 SW6       30.01S HX  91           
6HR MIN TEMP:  84; 6HR MAX TEMP:  89;                                

$$
 
ALZ019-021-028-029-037-038-045>048-030100-
EAST CENTRAL ALABAMA
  
CITY           SKY/WX    TMP DP  RH WIND       PRES   REMARKS
ANNISTON       CLOUDY    82  70  66 SW7       29.96F                  
6HR MIN TEMP:  82; 6HR MAX TEMP:  87; 6HR PCP: TRACE;                

ALEXANDER CITY CLOUDY    79  68  67 SW5       30.00R                  
6HR MIN TEMP:  79; 6HR MAX TEMP:  87;                                

AUBURN         MOCLDY    82  68  61 SW13      30.02S                  
6HR MIN TEMP:  81; 6HR MAX TEMP:  86;                                

$$
 
ALZ051>064-030100-
SOUTHWEST ALABAMA
  
CITY           SKY/WX    TMP DP  RH WIND       PRES   REMARKS
MOBILE         MOSUNNY   83  76  79 SW8       30.04S HX  91           
6HR MIN TEMP:  83; 6HR MAX TEMP:  89;                                

BROOKLEY FIELD SUNNY     84  76  76 VRB5      30.04F HX  93           
6HR MIN TEMP:  84; 6HR MAX TEMP:  89;                                

EVERGREEN      MOSUNNY   86  76  71 S5        30.02S HX  96           
6HR MIN TEMP:  84; 6HR MAX TEMP:  90;                                

$$

ALZ049-050-065>069-030100-
SOUTHEAST ALABAMA
  
CITY           SKY/WX    TMP DP  RH WIND       PRES   REMARKS
DOTHAN         MOCLDY    80  74  81 SW8       30.07S                  
6HR MIN TEMP:  71; 6HR MAX TEMP:  81; 6HR PCP:  0.21;                

OZARK          PTCLDY    80  75  85 S8        30.03F                  
6HR MIN TEMP:  71; 6HR MAX TEMP:  82; 6HR PCP:  0.22;                

TROY           MOCLDY    82  76  81 S7        30.02S                  
6HR MIN TEMP:  78; 6HR MAX TEMP:  90;                                

EUFAULA        FAIR      79  74  84 S6        30.00F                  
6HR MIN TEMP:  74; 6HR MAX TEMP:  90; 6HR PCP:  0.37;                

$$

Return to Home page


Western Regional Climate Center, wrcc@dri.edu